WESTFORD NEEDLES, 2359

Orbit data source: Space-Track

WESTFORD NEEDLES, 2359 is space debris in LEO originally from a launch on Thu, 09 May 1963 UTC launched from the Air Force Western Test Range (AFWTR). Debris objects in space refer to the collection of defunct objects orbiting the Earth. Examples of debris include non-operational satellites, rocket bodies, and fragments generated from explosions, collisions, or faulty payload assembly.

Loading next visibility...
Identifier
2359, 1963-014J
Orbit
LEO
Country
Flag of USUS
Related business
Manufacturer
Unknown
Mission
Spacecraft
Bus & Motor
Unknown
Mass
Unknown
Launch date (UTC)
1963-05-09 (63 years ago)
Launch vehicle
Unknown
Launch site
Air Force Western Test Range (AFWTR)
Object type
Payload
Rocket body
Debris
Shape & HBR
Unknown shape, 0.2 m
Radar Cross Section
Medium (>0.1 m² and <1 m²)

Expand to show TLE details & history
Last TLE update: 1 week ago

TLE from 1 week ago
0 WESTFORD NEEDLES
1 02359U 63014J   26122.09796564  .00003209  00000-0  62492+0 0  9998
2 02359  86.8815  11.6911 1269091 128.8794 243.2340  8.71836506910724
Epoch: 2026-05-02T02:21Z
TLE epoch observation values (Epoch: 2026-05-02T02:21:04.231Z)
Latitude
-0.00001°
Longitude
116.40272°
Altitude
4,283.058 km
Speed
5.901 km/s
True Right ascension
00h 46m 45s
True Declination
0° 00' 00"
Sunlit
Object was in daylight at epoch
Visualization orbit readout
Latitude
Unknown
Longitude
Unknown
Altitude
Unknown
Speed
Unknown
Apparent Right ascension
Unknown
Apparent Declination
Unknown
Sunlit
N/A
Visualization observer readout
Local Sidereal Time
00:07:23
Azimuth
Unknown
Elevation
Unknown
Doppler factor
Unknown
Orbital elements
Apogee altitude
4,856.782 km
Perigee altitude
2,326.297 km
Semi-major axis
9,969.677 km
Eccentricity
0.12691
Inclination
86.8815°
RAAN
11.6911°
Arg. of periapsis
128.8794°
True anomaly
231.20538°
Mean anomaly
243.234°
Eccentric anomaly
237.12697°
Mean motion
2.18033 °/min
Orbital period
165.11 mins
BSTAR
0.62492
Loading maneuver chart data...
Computing Atmospheric mass density...

Documentation

Showing up to 5 results
|